Wakefield, VA

8:18 PM EDT on April 27, 2017 (GMT -0400)
Wakefield Municipal

Weather History for KAKQ - March, 2013

Change the Weather History Date:

Saturday, March 9, 2013

  Actual Average (KJGG) Record (KJGG)
Temperature  
Mean Temperature 47 °F -  
Max Temperature 61 °F 58 °F 84 °F (2016)
Min Temperature 30 °F 34 °F 17 °F (1960)
Degree Days  
Heating Degree Days 18    
Moisture  
Dew Point 26 °F    
Average Humidity 52    
Maximum Humidity 85    
Minimum Humidity 21    
Precipitation  
Precipitation 0.00 in - - ()
Sea Level Pressure  
Sea Level Pressure 30.29 in    
Wind  
Wind Speed 6 mph (North)    
Max Wind Speed 9 mph    
Max Gust Speed 16 mph    
Visibility 10 miles    
Events      
Averages and records for this station are not official NWS values.
T = Trace of Precipitation, MM = Missing Value Source: NWS Daily Summary

Daily Weather History Graph

Daily Weather History Graph

Search for Another Location

Airport or City:

Trip Planner

Search our weather history database for the weather conditions in past years. The results will help you decide how hot, cold, wet, or windy it might be!

Date:

Astronomy

Mar. 09, 2013 Rise Set
Actual Time 6:27 AM EST 6:10 PM EST
Civil Twilight 6:01 AM EST 6:35 PM EST
Nautical Twilight 5:31 AM EST 7:06 PM EST
Astronomical Twilight 5:01 AM EST 7:36 PM EST
Moon 4:47 AM EST (3/9) 4:11 PM EST (3/9)
Length of Visible Light 12h 34m
Length of Day
11h 42m
Waning Crescent, 5% of the Moon is Illuminated
Mar 9
Waning Crescent
Mar 11
New
Mar 19
First Quarter
Mar 27
Full
Apr 3
Last Quarter

Hourly Weather History & Observations

Time (EST) Temp. Windchill Dew Point Humidity Pressure Visibility Wind Dir Wind Speed Gust Speed Precip Events Conditions
12:54 AM 41.0 °F 35.8 °F 27.0 °F 57% 30.25 in 10.0 mi North 8.1 mph - N/A   Clear
1:54 AM 39.9 °F 36.7 °F 27.0 °F 60% 30.25 in 10.0 mi North 4.6 mph - N/A   Clear
2:54 AM 39.0 °F 34.8 °F 27.0 °F 62% 30.25 in 10.0 mi North 5.8 mph - N/A   Clear
3:54 AM 39.0 °F 34.0 °F 26.1 °F 60% 30.25 in 10.0 mi North 6.9 mph - N/A   Clear
4:54 AM 37.9 °F 33.5 °F 26.1 °F 62% 30.26 in 10.0 mi North 5.8 mph - N/A   Clear
5:54 AM 37.0 °F 33.3 °F 26.1 °F 65% 30.28 in 10.0 mi North 4.6 mph - N/A   Clear
6:54 AM 37.0 °F 32.4 °F 26.1 °F 65% 30.29 in 10.0 mi North 5.8 mph - N/A   Clear
7:54 AM 39.9 °F 34.5 °F 26.1 °F 58% 30.31 in 10.0 mi North 8.1 mph - N/A   Clear
8:54 AM 44.1 °F 39.0 °F 25.0 °F 47% 30.32 in 10.0 mi NNE 9.2 mph 16.1 mph N/A   Clear
9:54 AM 46.9 °F - 25.0 °F 42% 30.33 in 10.0 mi North 8.1 mph - N/A   Clear
10:54 AM 50.0 °F - 23.0 °F 35% 30.32 in 10.0 mi North 6.9 mph - N/A   Clear
11:54 AM 54.0 °F - 24.1 °F 31% 30.32 in 10.0 mi North 6.9 mph - N/A   Clear
12:54 PM 57.0 °F - 24.1 °F 28% 30.29 in 10.0 mi NNE 9.2 mph - N/A   Clear
1:54 PM 57.9 °F - 21.9 °F 25% 30.27 in 10.0 mi NNW 5.8 mph - N/A   Clear
2:54 PM 60.1 °F - 21.9 °F 23% 30.27 in 10.0 mi NNE 5.8 mph - N/A   Clear
3:54 PM 61.0 °F - 23.0 °F 23% 30.26 in 10.0 mi North 3.5 mph - N/A   Clear
4:54 PM 60.1 °F - 19.9 °F 21% 30.26 in 10.0 mi North 4.6 mph - N/A   Clear
5:54 PM 54.0 °F - 27.0 °F 35% 30.27 in 10.0 mi Calm Calm - N/A   Clear
6:54 PM 44.1 °F - 30.0 °F 58% 30.27 in 10.0 mi Calm Calm - N/A   Clear
7:54 PM 39.0 °F - 28.9 °F 67% 30.29 in 10.0 mi Calm Calm - N/A   Clear
8:54 PM 37.0 °F - 28.9 °F 73% 30.31 in 10.0 mi Calm Calm - N/A   Clear
9:54 PM 36.0 °F - 28.0 °F 73% 30.32 in 10.0 mi Calm Calm - N/A   Clear
10:54 PM 33.1 °F - 28.0 °F 82% 30.32 in 10.0 mi Calm Calm - N/A   Clear
11:54 PM 30.9 °F - 27.0 °F 85% 30.31 in 10.0 mi Calm Calm - N/A   Clear